Temp
-13 -13 -13 -13 -13 -13 -14 -14 -14 -14 -14 -14 -14 -13 -13 -14 -14 -14 -13 -13 -13 -12 -12 -11 -12 -11 -12 -11 -11 -10 -10 -10 -11 -10 -11 -11 -11 -11 -11 -11 -11 -11 -11 -11
-14 -14 -13 -13 -14 -14 -14 -14 -14 -14 -13 -13 -14 -14 -14 -14 -13 -14 -14 -13 -13 -13 -13 -12 -11 -11 -11 -11 -11 -10 -10 -10 -11 -11 -11 -11 -11 -11 -11 -11 -11 -11 -11 -11
-13 -13 -13 -14 -14 -15 -15 -14 -14 -13 -14 -14 -13 -13 -15 -16 -15 -14 -14 -14 -13 -13 -13 -12 -12 -11 -11 -11 -11 -11 -11 -11 -12 -11 -11 -11 -12 -11 -11 -11 -11 -12 -12 -12
-13 -13 -13 -14 -14 -14 -14 -14 -13 -14 -14 -13 -14 -13 -15 -16 -16 -16 -15 -14 -14 -13 -12 -12 -12 -11 -11 -12 -12 -11 -11 -11 -12 -11 -11 -11 -11 -11 -11 -11 -11 -11 -12 -12
-14 -14 -14 -14 -15 -14 -14 -14 -14 -13 -15 -14 -15 -16 -17 -18 -18 -16 -16 -15 -14 -13 -12 -12 -12 -12 -12 -12 -12 -11 -11 -12 -11 -11 -11 -11 -11 -11 -11 -11 -11 -12 -12 -13
-14 -14 -14 -14 -14 -14 -14 -14 -14 -14 -14 -14 -16 -17 -18 -18 -18 -17 -16 -15 -15 -14 -13 -12 -12 -12 -12 -12 -11 -12 -12 -11 -11 -11 -11 -10 -11 -11 -11 -12 -12 -12 -13 -13
-14 -14 -14 -14 -15 -15 -14 -14 -14 -14 -14 -15 -16 -17 -18 -18 -18 -17 -16 -16 -15 -14 -13 -13 -13 -13 -12 -13 -12 -13 -11 -12 -11 -10 -11 -10 -11 -11 -11 -11 -12 -13 -13 -14
-14 -14 -14 -14 -14 -14 -14 -14 -14 -15 -15 -16 -16 -17 -17 -17 -17 -17 -16 -16 -15 -14 -14 -13 -13 -14 -13 -13 -12 -11 -11 -12 -11 -10 -11 -12 -12 -11 -12 -13 -14 -13 -13 -13
-14 -14 -14 -15 -15 -14 -15 -15 -15 -15 -16 -15 -16 -15 -16 -17 -16 -16 -16 -15 -15 -14 -14 -14 -13 -13 -13 -13 -12 -12 -12 -11 -11 -11 -12 -12 -12 -12 -14 -14 -14 -14 -13 -14
-14 -14 -14 -15 -15 -15 -15 -15 -15 -15 -16 -16 -16 -15 -15 -16 -16 -16 -16 -16 -15 -14 -15 -15 -14 -14 -13 -13 -13 -13 -12 -12 -11 -12 -12 -13 -13 -13 -13 -13 -14 -14 -14 -15
-13 -14 -14 -14 -15 -15 -14 -15 -15 -15 -15 -16 -15 -16 -15 -14 -16 -15 -16 -15 -15 -15 -15 -14 -14 -14 -13 -13 -13 -13 -12 -12 -13 -13 -13 -14 -13 -13 -14 -14 -14 -14 -14 -14
-14 -14 -14 -14 -14 -15 -14 -15 -15 -15 -15 -16 -16 -15 -16 -15 -15 -16 -14 -15 -15 -15 -14 -14 -14 -13 -13 -13 -13 -13 -14 -14 -14 -14 -13 -13 -14 -14 -14 -14 -14 -14 -15 -14
-13 -13 -14 -14 -15 -15 -15 -15 -15 -15 -16 -16 -16 -16 -16 -16 -15 -15 -15 -16 -15 -14 -14 -14 -14 -14 -14 -14 -14 -14 -14 -14 -14 -13 -13 -13 -13 -14 -14 -14 -14 -14 -14 -14
-13 -14 -14 -14 -14 -15 -15 -15 -16 -15 -15 -16 -16 -16 -16 -16 -15 -15 -15 -15 -15 -15 -15 -15 -15 -15 -14 -15 -15 -14 -14 -14 -14 -14 -13 -14 -14 -14 -14 -14 -14 -13 -13 -14
-13 -14 -14 -14 -14 -14 -15 -15 -16 -15 -15 -15 -15 -15 -15 -16 -16 -16 -15 -16 -15 -15 -15 -15 -15 -15 -15 -14 -14 -14 -14 -14 -14 -14 -14 -14 -14 -14 -14 -13 -13 -14 -14 -14
-13 -13 -14 -14 -14 -14 -14 -15 -15 -15 -15 -15 -16 -16 -15 -16 -16 -15 -15 -15 -15 -16 -16 -15 -15 -15 -15 -15 -15 -15 -15 -14 -14 -14 -14 -14 -14 -13 -13 -14 -14 -14 -14 -14
-13 -13 -14 -14 -14 -14 -14 -15 -15 -15 -16 -15 -15 -16 -16 -15 -15 -16 -15 -15 -15 -15 -15 -15 -15 -15 -15 -15 -15 -14 -14 -14 -14 -14 -14 -14 -13 -13 -13 -14 -14 -14 -14 -14
-14 -14 -14 -14 -14 -14 -15 -15 -15 -15 -16 -16 -15 -16 -16 -15 -15 -15 -15 -16 -16 -15 -15 -15 -15 -15 -15 -15 -15 -14 -14 -14 -14 -14 -14 -13 -13 -14 -14 -14 -14 -14 -15 -15
-14 -14 -14 -14 -14 -14 -15 -15 -15 -15 -15 -15 -16 -16 -16 -16 -16 -16 -16 -16 -16 -16 -16 -16 -16 -16 -15 -15 -15 -15 -15 -14 -14 -14 -14 -14 -14 -14 -14 -14 -14 -14 -15 -15
-13 -14 -14 -14 -14 -14 -15 -15 -15 -15 -15 -15 -16 -16 -16 -16 -16 -16 -16 -16 -16 -16 -16 -16 -16 -15 -15 -15 -15 -15 -15 -14 -14 -14 -14 -14 -14 -14 -14 -14 -14 -15 -15 -16
-13 -14 -14 -14 -14 -14 -15 -15 -15 -15 -15 -15 -16 -16 -16 -16 -16 -16 -16 -16 -16 -16 -16 -16 -16 -16 -15 -15 -15 -15 -15 -14 -14 -14 -14 -14 -14 -14 -14 -14 -15 -15 -16 -18
-13 -13 -14 -15 -15 -14 -15 -15 -15 -15 -15 -15 -16 -16 -16 -16 -16 -16 -17 -17 -17 -17 -16 -16 -16 -16 -16 -16 -15 -15 -14 -14 -14 -14 -14 -14 -14 -14 -14 -15 -15 -16 -18 -20
-13 -13 -14 -14 -15 -15 -14 -15 -15 -15 -15 -15 -16 -16 -16 -16 -16 -17 -17 -17 -17 -17 -17 -16 -16 -16 -16 -16 -15 -15 -15 -15 -14 -15 -15 -15 -14 -14 -15 -15 -16 -18 -20 -21
-14 -14 -14 -14 -15 -15 -14 -15 -15 -15 -15 -15 -16 -16 -16 -16 -16 -16 -17 -17 -17 -17 -17 -17 -16 -16 -16 -16 -15 -15 -15 -15 -15 -15 -15 -14 -14 -15 -15 -16 -17 -20 -22 -22
-14 -14 -14 -14 -15 -15 -14 -14 -14 -15 -15 -16 -16 -16 -16 -16 -16 -17 -17 -17 -17 -17 -17 -17 -17 -17 -16 -16 -16 -15 -15 -15 -15 -15 -15 -14 -15 -15 -16 -16 -19 -21 -23 -23
-15 -15 -14 -13 -14 -13 -14 -14 -14 -15 -15 -15 -16 -16 -16 -16 -16 -17 -17 -17 -17 -17 -17 -17 -17 -17 -16 -16 -16 -15 -15 -15 -15 -15 -15 -15 -15 -15 -16 -18 -21 -23 -23 -23
Height
5760 5755 5751 5745 5740 5736 5733 5730 5726 5723 5719 5718 5717 5717 5718 5721 5726 5730 5733 5737 5742 5748 5756 5765 5770 5778 5784 5787 5789 5791 5794 5797 5798 5801 5804 5806 5808 5805 5806 5806 5807 5806 5805 5804
5759 5755 5750 5745 5739 5734 5728 5724 5719 5717 5712 5708 5707 5705 5703 5706 5712 5717 5721 5725 5733 5741 5747 5755 5762 5770 5779 5782 5783 5785 5781 5789 5792 5797 5797 5800 5800 5799 5798 5798 5798 5798 5798 5797
5757 5752 5749 5745 5738 5733 5724 5719 5716 5713 5710 5704 5696 5694 5695 5692 5696 5702 5706 5716 5724 5732 5742 5749 5756 5761 5768 5774 5775 5777 5779 5782 5787 5792 5792 5793 5793 5792 5791 5790 5788 5788 5787 5787
5756 5750 5748 5743 5738 5733 5726 5719 5713 5708 5702 5696 5688 5684 5684 5678 5677 5683 5693 5706 5717 5725 5736 5743 5749 5753 5760 5765 5767 5770 5774 5777 5782 5786 5788 5787 5787 5787 5784 5784 5780 5781 5775 5778
5758 5752 5748 5743 5738 5733 5726 5720 5711 5705 5696 5688 5680 5676 5667 5663 5664 5673 5683 5693 5707 5719 5727 5736 5744 5749 5752 5758 5763 5769 5771 5774 5778 5780 5781 5780 5777 5779 5780 5778 5774 5774 5769 5770
5757 5753 5748 5741 5734 5731 5727 5721 5712 5704 5693 5684 5677 5671 5664 5661 5660 5666 5678 5688 5703 5713 5721 5729 5736 5741 5746 5752 5758 5765 5767 5763 5771 5773 5775 5762 5765 5773 5770 5769 5770 5762 5765 5765
5757 5751 5747 5743 5737 5732 5728 5722 5711 5702 5692 5686 5678 5671 5665 5662 5661 5666 5676 5688 5700 5710 5716 5724 5731 5739 5743 5748 5753 5761 5764 5762 5765 5768 5769 5759 5765 5766 5752 5759 5759 5760 5758 5759
5755 5749 5745 5740 5735 5729 5725 5719 5711 5704 5699 5693 5683 5675 5672 5668 5668 5670 5676 5687 5696 5706 5712 5720 5727 5733 5738 5742 5746 5751 5752 5756 5759 5759 5757 5758 5759 5744 5743 5744 5750 5752 5755 5752
5756 5751 5745 5741 5736 5732 5727 5722 5716 5710 5704 5697 5690 5683 5676 5672 5672 5675 5679 5685 5693 5700 5707 5716 5721 5727 5732 5737 5740 5743 5747 5750 5752 5743 5751 5748 5744 5745 5740 5743 5747 5747 5747 5744
5756 5751 5748 5743 5739 5734 5729 5725 5721 5713 5706 5701 5698 5692 5684 5679 5677 5680 5683 5687 5692 5698 5705 5713 5718 5724 5729 5733 5735 5738 5739 5743 5742 5741 5730 5731 5736 5738 5740 5740 5740 5741 5739 5737
5755 5751 5747 5743 5740 5736 5731 5724 5722 5717 5711 5707 5703 5699 5694 5687 5684 5682 5685 5690 5695 5700 5705 5710 5715 5721 5725 5729 5732 5735 5733 5735 5735 5735 5734 5734 5735 5736 5735 5734 5733 5733 5731 5727
5755 5751 5746 5744 5739 5735 5730 5726 5724 5721 5716 5711 5709 5707 5702 5698 5694 5690 5686 5690 5697 5702 5708 5712 5715 5717 5717 5723 5726 5727 5729 5731 5733 5734 5733 5732 5732 5731 5729 5728 5726 5723 5720 5717
5754 5752 5748 5742 5740 5737 5733 5731 5727 5723 5719 5716 5713 5712 5707 5704 5702 5700 5697 5697 5701 5704 5706 5707 5714 5718 5720 5722 5724 5727 5729 5730 5730 5730 5729 5728 5727 5725 5724 5722 5720 5715 5710 5707
5751 5749 5747 5745 5741 5738 5735 5732 5729 5726 5722 5719 5717 5715 5713 5709 5706 5706 5705 5705 5706 5706 5707 5710 5715 5718 5720 5722 5723 5724 5725 5726 5726 5727 5726 5725 5723 5721 5718 5714 5710 5706 5700 5695
5750 5747 5744 5742 5740 5737 5735 5732 5729 5727 5725 5723 5720 5717 5716 5715 5713 5710 5709 5708 5709 5710 5711 5714 5716 5718 5719 5720 5720 5720 5721 5721 5721 5720 5719 5717 5715 5712 5709 5706 5701 5694 5688 5681
5748 5745 5742 5740 5738 5736 5734 5732 5730 5728 5726 5725 5722 5719 5717 5717 5716 5716 5715 5714 5714 5715 5716 5717 5718 5718 5719 5719 5718 5717 5716 5714 5713 5713 5712 5710 5707 5705 5701 5694 5689 5684 5677 5670
5743 5742 5740 5738 5736 5734 5733 5730 5729 5727 5726 5725 5723 5720 5718 5717 5717 5716 5716 5716 5715 5715 5715 5715 5715 5715 5715 5715 5714 5713 5713 5712 5711 5709 5706 5703 5701 5698 5692 5687 5680 5673 5665 5656
5740 5739 5737 5735 5733 5733 5731 5729 5728 5727 5725 5724 5723 5721 5719 5717 5717 5717 5716 5715 5715 5715 5714 5715 5714 5713 5712 5712 5710 5708 5707 5706 5705 5703 5701 5698 5694 5689 5683 5676 5669 5661 5651 5641
5735 5735 5734 5732 5730 5730 5728 5727 5726 5725 5724 5722 5721 5720 5719 5717 5715 5715 5714 5714 5714 5713 5713 5712 5711 5710 5709 5707 5704 5703 5701 5700 5699 5697 5695 5691 5685 5680 5673 5666 5657 5648 5636 5624
5730 5729 5730 5728 5727 5725 5725 5723 5723 5722 5721 5721 5719 5718 5717 5716 5714 5713 5712 5711 5711 5710 5710 5708 5707 5705 5702 5700 5698 5696 5695 5694 5692 5690 5687 5683 5677 5671 5663 5654 5644 5633 5620 5606
5724 5723 5723 5722 5722 5722 5720 5719 5718 5718 5719 5716 5716 5715 5715 5714 5713 5711 5709 5708 5707 5706 5705 5704 5702 5699 5696 5694 5692 5691 5689 5688 5686 5683 5679 5674 5668 5660 5650 5640 5629 5616 5602 5589
5720 5717 5716 5715 5716 5718 5716 5713 5714 5713 5711 5711 5710 5710 5710 5710 5709 5708 5706 5705 5703 5702 5700 5699 5697 5694 5691 5688 5687 5686 5684 5682 5679 5675 5670 5665 5657 5648 5637 5625 5613 5598 5585 5576
5714 5712 5710 5710 5710 5710 5709 5706 5707 5707 5707 5706 5705 5705 5705 5705 5704 5703 5702 5700 5699 5697 5696 5694 5692 5689 5687 5684 5682 5680 5678 5676 5672 5667 5661 5654 5646 5636 5624 5611 5596 5582 5571 5564
5706 5703 5702 5700 5703 5701 5701 5699 5700 5701 5701 5700 5699 5699 5698 5699 5699 5698 5697 5695 5694 5692 5691 5689 5687 5684 5682 5679 5677 5675 5673 5670 5665 5659 5653 5645 5636 5624 5611 5596 5581 5566 5557 5551
5700 5695 5687 5692 5695 5692 5693 5691 5691 5693 5694 5694 5693 5692 5691 5691 5692 5692 5692 5691 5689 5687 5685 5683 5682 5679 5677 5675 5673 5670 5667 5663 5657 5652 5645 5636 5625 5613 5598 5581 5566 5553 5545 5540
5694 5688 5679 5677 5681 5682 5685 5684 5685 5685 5685 5686 5685 5685 5685 5684 5684 5685 5685 5685 5685 5683 5680 5678 5676 5674 5672 5670 5667 5664 5660 5656 5650 5644 5636 5626 5615 5601 5585 5568 5552 5541 5536 5531
Wind_Speed
24 17 14 14 15 16 20 14 13 15 21 26 34 42 45 44 41 40 42 45 43 40 41 46 42 39 34 36 36 33 32 32 27 18 20 29 30 25 22 25 27 27 27 26
22 17 14 18 19 18 11 9 16 18 25 26 28 30 40 46 47 46 44 46 46 42 38 37 42 40 41 36 40 37 28 30 15 22 25 32 25 28 28 27 25 29 27 36
21 21 15 16 14 17 24 23 19 23 24 25 30 33 33 36 46 47 52 47 47 46 39 36 34 38 37 38 39 38 33 29 26 28 31 28 25 30 29 26 26 30 28 29
25 28 19 18 19 20 22 21 22 27 29 22 24 30 25 37 42 49 49 50 47 46 43 38 34 38 39 38 38 40 38 31 27 34 30 29 29 28 22 26 31 30 30 34
25 23 20 21 15 18 27 21 23 32 33 30 18 22 27 29 31 41 45 50 49 44 43 41 37 36 38 39 40 41 39 37 36 35 30 34 31 27 32 33 41 35 34 22
24 22 22 24 26 22 26 22 23 29 35 33 20 22 15 10 13 27 40 44 44 43 43 42 38 37 41 39 33 28 28 34 35 32 30 29 24 32 40 32 35 17 15 19
25 23 24 20 16 20 21 22 26 32 38 31 23 23 14 7 4 17 31 38 38 37 42 41 36 35 36 29 27 34 32 25 28 28 39 34 33 35 42 31 21 22 19 21
27 30 28 27 25 23 24 27 27 28 31 31 34 20 14 10 4 16 26 36 33 31 36 39 36 34 35 33 33 32 29 27 26 37 38 35 30 33 27 26 27 27 28 29
23 25 28 26 24 23 22 23 22 21 25 30 35 32 24 8 8 14 24 33 35 33 33 35 37 32 31 30 28 26 29 27 33 22 33 22 29 36 29 27 25 25 28 31
20 23 24 23 21 21 19 20 19 20 24 25 27 28 29 36 9 13 17 26 34 32 27 25 31 32 30 26 28 25 31 31 18 24 23 27 30 31 29 27 28 30 33 36
20 22 26 24 22 20 18 22 23 20 24 21 24 28 27 26 30 9 6 20 25 25 22 22 22 20 26 29 27 32 22 20 25 28 31 34 32 30 29 29 32 35 37 39
19 18 22 22 22 23 23 24 21 18 19 22 19 23 24 28 22 24 19 20 21 22 25 23 23 25 22 27 26 27 23 21 24 27 27 28 28 30 31 35 37 39 41 44
19 15 16 22 21 19 18 16 19 19 19 19 20 17 19 22 21 23 23 15 14 31 21 17 14 14 20 19 14 14 16 17 20 22 25 27 30 33 35 36 39 42 42 46
18 19 17 17 17 17 14 14 16 17 16 16 16 18 17 16 15 15 17 19 15 15 13 10 5 3 6 9 12 13 15 18 21 23 26 28 31 33 35 38 39 43 49 54
15 18 18 16 16 17 15 13 12 14 14 13 14 14 14 13 13 13 12 10 9 8 6 5 7 8 10 11 13 16 18 20 22 24 27 29 31 34 35 38 44 49 53 57
13 15 17 17 16 16 15 13 11 10 11 10 11 11 10 10 9 8 8 7 6 4 4 4 5 7 9 12 14 16 19 21 24 26 28 31 33 33 39 44 49 52 56 61
15 15 16 18 16 15 15 15 14 11 9 9 7 9 9 8 7 7 5 4 2 1 2 4 6 8 11 13 16 18 21 23 25 28 29 30 32 37 42 46 50 55 61 65
18 17 16 17 17 14 14 15 13 12 11 8 6 5 7 8 6 4 4 4 4 5 5 7 8 10 13 16 18 20 23 25 27 27 27 31 36 40 44 48 54 59 63 69
20 19 18 18 18 16 14 14 14 15 14 12 10 8 7 7 8 8 7 6 7 8 9 9 11 13 15 19 22 22 21 21 22 25 29 33 37 41 46 52 56 62 68 71
20 22 20 19 19 17 16 16 15 14 16 15 13 11 10 10 9 9 10 10 10 9 11 15 17 18 21 22 22 21 20 21 23 26 30 34 39 44 50 55 59 65 68 67
22 23 23 22 19 18 20 19 18 16 16 15 15 15 14 13 12 12 13 13 15 17 18 18 20 22 23 23 21 19 19 21 24 28 32 37 42 49 54 59 65 67 64 56
25 26 24 25 22 21 23 24 21 20 18 16 16 17 17 17 17 16 16 16 17 18 20 21 22 25 24 21 18 17 19 21 26 31 35 40 46 53 58 63 69 65 59 44
27 28 27 26 23 22 24 27 25 24 22 20 19 18 19 18 19 20 21 20 19 20 20 21 22 24 21 18 16 17 20 24 29 34 38 43 50 56 62 67 68 62 52 41
29 30 30 29 23 24 23 30 28 25 24 23 21 20 19 20 20 21 22 22 22 21 21 22 23 24 20 18 18 19 23 27 32 36 41 46 53 59 65 69 65 57 46 39
28 32 37 32 25 28 26 30 30 27 26 25 23 23 22 22 22 22 22 23 22 22 22 23 23 24 22 20 20 21 25 30 34 38 43 49 56 62 69 70 61 50 41 36
26 33 40 41 34 34 28 31 27 25 26 25 26 26 26 24 23 23 23 22 23 24 23 24 23 24 23 22 22 24 28 32 36 40 45 52 58 65 70 63 53 45 35 32
Wind_Direction
346 343 354 348 334 322 317 302 291 282 273 270 261 257 257 251 247 241 237 239 239 241 240 239 232 234 227 228 236 239 244 248 228 245 259 258 258 262 272 271 270 272 279 265
342 335 347 353 343 343 332 295 277 272 274 270 259 254 251 249 245 239 238 233 233 233 239 238 242 236 235 235 232 238 249 248 255 273 264 265 270 278 275 274 271 272 280 279
349 345 353 357 359 343 331 335 318 319 300 292 287 264 256 256 242 236 231 232 230 230 228 234 235 242 238 237 244 249 252 260 259 260 265 267 274 277 270 269 270 274 269 283
2 2 2 349 347 346 0 15 20 8 353 345 293 286 265 255 244 231 226 226 225 228 227 228 228 231 240 241 242 242 247 250 252 251 259 270 263 269 257 266 260 270 270 274
360 4 2 356 1 3 3 351 355 353 355 348 327 307 282 268 248 232 221 215 216 219 225 223 223 228 232 233 243 247 245 244 244 251 257 259 245 247 248 257 268 269 265 242
354 358 7 0 358 356 355 358 14 11 5 1 1 350 340 295 254 226 215 211 208 213 219 223 224 224 231 233 235 249 255 238 242 247 265 249 233 260 259 279 269 251 250 279
352 354 1 12 5 347 351 8 23 24 15 10 11 12 16 3 233 202 200 202 201 208 213 216 220 230 237 239 242 249 249 257 257 254 263 257 269 261 254 246 265 286 275 302
344 354 2 7 8 2 353 5 19 28 17 20 21 15 22 35 129 176 191 192 191 206 213 211 215 224 232 237 239 244 250 249 254 246 251 265 266 240 278 320 320 312 294 296
353 354 354 8 5 5 0 9 22 25 26 24 32 42 49 83 143 174 182 187 192 203 212 210 210 217 219 224 239 243 243 242 253 254 258 256 260 261 322 318 298 288 288 287
351 347 353 359 10 2 0 9 16 16 23 32 35 34 57 43 103 172 194 192 193 201 206 208 210 215 225 232 235 238 242 242 238 235 272 294 292 310 301 297 297 294 291 291
344 348 346 351 360 8 9 13 6 27 20 38 34 39 47 54 48 91 162 198 203 203 192 188 202 218 227 228 228 228 241 247 250 257 276 295 299 297 298 296 294 293 293 294
334 342 343 345 353 359 12 9 360 12 28 28 35 39 39 51 56 52 73 169 178 183 174 199 202 218 234 212 227 234 247 262 277 282 284 288 292 293 294 294 297 298 296 295
323 336 341 340 346 356 10 6 0 8 23 30 33 38 42 50 50 55 62 83 164 179 168 170 197 222 238 244 241 255 265 267 272 279 284 287 290 292 295 297 296 297 299 299
316 323 330 337 342 346 356 9 3 359 19 21 23 40 44 42 48 51 62 84 91 90 85 93 121 189 233 237 244 253 262 269 273 277 282 286 290 293 295 298 300 300 300 301
305 313 320 330 334 338 345 354 7 354 9 12 14 24 41 51 58 56 63 66 81 95 111 158 192 215 235 249 259 264 270 274 279 283 286 290 294 298 298 299 300 303 305 307
295 302 309 314 321 330 337 337 348 353 350 359 5 7 21 34 38 54 61 64 61 92 140 183 210 234 247 255 265 274 281 284 286 289 293 296 298 298 299 304 307 307 306 305
298 302 301 303 309 318 328 330 329 334 338 338 348 345 347 4 17 16 26 34 31 308 285 285 285 288 287 286 284 284 284 286 289 291 292 295 296 299 303 304 305 306 306 306
289 292 292 294 299 307 314 317 319 311 307 311 317 320 325 329 339 353 345 336 321 304 295 290 291 291 291 291 290 289 286 284 285 287 290 294 299 303 304 305 305 305 307 308
287 285 284 286 288 294 300 301 306 305 302 296 297 300 300 304 309 311 308 299 295 296 299 303 302 298 296 298 289 289 288 284 285 289 294 301 303 303 304 306 306 309 311 313
289 284 283 283 285 289 291 290 291 296 298 302 296 290 291 292 289 292 295 295 294 297 299 303 307 303 303 299 299 286 282 285 289 294 297 299 301 304 306 309 312 312 315 311
295 290 290 285 286 288 284 282 284 285 288 295 298 293 285 282 285 286 287 290 293 298 300 303 306 305 306 301 294 284 281 286 290 295 299 304 306 309 311 314 315 319 316 310
299 294 288 285 286 283 278 276 275 277 278 279 283 289 288 284 282 283 284 287 292 297 302 306 306 308 307 299 286 282 285 292 299 303 305 308 311 313 315 317 320 320 313 298
298 295 290 285 283 280 278 276 275 276 279 277 278 280 284 286 283 281 283 286 290 295 300 305 309 312 305 298 292 290 296 303 305 307 311 312 315 317 319 321 324 317 308 293
291 292 290 283 283 276 270 272 273 273 273 275 276 275 276 280 284 288 288 287 288 292 296 300 310 315 306 301 293 296 304 306 309 312 314 318 319 321 322 326 325 315 305 295
286 287 283 282 282 273 269 265 270 271 271 273 274 272 270 272 276 281 286 289 291 292 293 296 306 315 308 298 298 303 308 312 313 316 320 321 323 324 326 330 323 316 308 300
284 284 279 279 278 279 274 272 273 268 265 265 262 266 269 270 271 273 277 282 289 295 295 295 300 310 306 298 302 308 313 314 317 321 324 325 326 328 331 333 326 321 315 308